Time,TemperatureF,DewpointF,PressureIn,WindDirection,WindDirectionDegrees,WindSpeedMPH,WindSpeedGustMPH,Humidity,HourlyPrecipIn,Conditions,Clouds,dailyrainin,SolarRadiationWatts/m^2,SoftwareType,DateUTC
2013-11-20 00:00:00,32.7,29.0,30.22,SE,125,11.0,11.0,86,0.00,,,0.00,0,Wunderground v.1.15,2013-11-20 06:00:00,
2013-11-20 00:10:00,32.8,29.1,30.23,SE,127,9.0,9.0,86,0.00,,,0.00,0,Wunderground v.1.15,2013-11-20 06:10:00,
2013-11-20 00:15:00,32.8,29.1,30.23,SE,128,9.0,9.0,86,0.00,,,0.00,0,Wunderground v.1.15,2013-11-20 06:15:00,
2013-11-20 00:20:00,32.8,29.1,30.24,SE,128,8.0,9.0,86,0.00,,,0.00,0,Wunderground v.1.15,2013-11-20 06:20:00,
2013-11-20 00:25:00,32.7,29.0,30.24,SE,128,7.0,9.0,86,0.00,,,0.00,0,Wunderground v.1.15,2013-11-20 06:25:00,
2013-11-20 00:30:00,32.7,29.0,30.24,SE,128,6.0,6.0,86,0.00,,,0.00,0,Wunderground v.1.15,2013-11-20 06:30:00,
2013-11-20 00:35:00,32.6,28.9,30.23,SE,129,6.0,6.0,86,0.00,,,0.00,0,Wunderground v.1.15,2013-11-20 06:35:00,
2013-11-20 00:40:00,32.6,28.9,30.23,SE,129,6.0,6.0,86,0.00,,,0.00,0,Wunderground v.1.15,2013-11-20 06:40:00,
2013-11-20 00:45:00,32.6,28.9,30.23,SE,128,7.0,7.0,86,0.00,,,0.00,0,Wunderground v.1.15,2013-11-20 06:45:00,
2013-11-20 00:50:00,32.6,29.2,30.23,SE,126,7.0,7.0,87,0.00,,,0.00,0,Wunderground v.1.15,2013-11-20 06:50:00,
2013-11-20 00:55:00,32.6,29.2,30.23,SE,126,5.0,7.0,87,0.00,,,0.00,0,Wunderground v.1.15,2013-11-20 06:55:00,
2013-11-20 01:00:00,32.7,29.3,30.23,SE,126,5.0,6.0,87,0.00,,,0.00,0,Wunderground v.1.15,2013-11-20 07:00:00,
2013-11-20 01:10:00,32.8,29.4,30.23,ESE,123,6.0,6.0,87,0.00,,,0.00,0,Wunderground v.1.15,2013-11-20 07:10:00,
2013-11-20 01:20:00,32.9,29.5,30.23,ESE,122,6.0,6.0,87,0.00,,,0.00,0,Wunderground v.1.15,2013-11-20 07:20:00,
2013-11-20 01:25:00,33.0,29.3,30.23,ESE,119,6.0,7.0,86,0.00,,,0.00,0,Wunderground v.1.15,2013-11-20 07:25:00,
2013-11-20 01:30:00,33.0,29.3,30.23,ESE,119,6.0,6.0,86,0.00,,,0.00,0,Wunderground v.1.15,2013-11-20 07:30:00,
2013-11-20 01:35:00,33.0,29.3,30.23,ESE,121,6.0,6.0,86,0.00,,,0.00,0,Wunderground v.1.15,2013-11-20 07:35:00,
2013-11-20 01:40:00,33.0,29.3,30.23,SE,124,6.0,9.0,86,0.00,,,0.00,0,Wunderground v.1.15,2013-11-20 07:40:00,
2013-11-20 01:45:00,33.0,29.3,30.23,SE,128,7.0,9.0,86,0.00,,,0.00,0,Wunderground v.1.15,2013-11-20 07:45:00,
2013-11-20 01:50:00,33.1,29.4,30.23,SE,125,8.0,8.0,86,0.00,,,0.00,0,Wunderground v.1.15,2013-11-20 07:50:00,
2013-11-20 01:55:00,33.0,29.3,30.23,SE,125,8.0,8.0,86,0.00,,,0.00,0,Wunderground v.1.15,2013-11-20 07:55:00,
2013-11-20 02:00:00,33.0,29.3,30.23,ESE,123,7.0,7.0,86,0.00,,,0.00,0,Wunderground v.1.15,2013-11-20 08:00:00,
2013-11-20 02:10:00,32.9,29.5,30.23,SE,125,8.0,8.0,87,0.00,,,0.00,0,Wunderground v.1.15,2013-11-20 08:10:00,
2013-11-20 02:15:00,32.9,29.5,30.23,ESE,122,8.0,10.0,87,0.00,,,0.00,0,Wunderground v.1.15,2013-11-20 08:15:00,
2013-11-20 02:25:00,33.2,29.5,30.24,SE,124,8.0,8.0,86,0.00,,,0.00,0,Wunderground v.1.15,2013-11-20 08:25:00,
2013-11-20 02:30:00,33.3,29.6,30.24,ESE,123,7.0,7.0,86,0.00,,,0.00,0,Wunderground v.1.15,2013-11-20 08:30:00,
2013-11-20 02:35:00,33.5,29.8,30.23,ESE,122,7.0,10.0,86,0.00,,,0.00,0,Wunderground v.1.15,2013-11-20 08:35:00,
2013-11-20 02:40:00,33.5,29.8,30.23,ESE,122,8.0,9.0,86,0.00,,,0.00,0,Wunderground v.1.15,2013-11-20 08:40:00,
2013-11-20 02:45:00,33.6,29.9,30.23,ESE,122,8.0,9.0,86,0.00,,,0.00,0,Wunderground v.1.15,2013-11-20 08:45:00,
2013-11-20 02:50:00,33.6,29.9,30.23,ESE,122,7.0,7.0,86,0.00,,,0.00,0,Wunderground v.1.15,2013-11-20 08:50:00,
2013-11-20 02:55:00,33.6,29.9,30.23,ESE,119,7.0,7.0,86,0.00,,,0.00,0,Wunderground v.1.15,2013-11-20 08:55:00,
2013-11-20 03:00:00,33.5,29.8,30.22,ESE,119,7.0,10.0,86,0.00,,,0.00,0,Wunderground v.1.15,2013-11-20 09:00:00,
2013-11-20 03:05:00,33.5,29.8,30.22,ESE,119,7.0,10.0,86,0.00,,,0.00,0,Wunderground v.1.15,2013-11-20 09:05:00,
2013-11-20 03:10:00,33.6,29.9,30.22,ESE,119,8.0,9.0,86,0.00,,,0.00,0,Wunderground v.1.15,2013-11-20 09:10:00,
2013-11-20 03:15:00,33.6,29.9,30.22,ESE,115,8.0,9.0,86,0.00,,,0.00,0,Wunderground v.1.15,2013-11-20 09:15:00,
2013-11-20 03:20:00,33.7,30.0,30.21,ESE,117,9.0,9.0,86,0.00,,,0.00,0,Wunderground v.1.15,2013-11-20 09:20:00,
2013-11-20 03:30:00,33.9,29.9,30.21,ESE,114,10.0,10.0,85,0.00,,,0.00,0,Wunderground v.1.15,2013-11-20 09:30:00,
2013-11-20 03:35:00,34.0,30.0,30.21,ESE,118,10.0,10.0,85,0.00,,,0.00,0,Wunderground v.1.15,2013-11-20 09:35:00,
2013-11-20 03:40:00,34.1,30.1,30.21,ESE,123,9.0,9.0,85,0.00,,,0.00,0,Wunderground v.1.15,2013-11-20 09:40:00,
2013-11-20 03:45:00,34.1,30.1,30.21,ESE,117,9.0,12.0,85,0.00,,,0.00,0,Wunderground v.1.15,2013-11-20 09:45:00,
2013-11-20 03:50:00,34.1,30.1,30.20,ESE,115,10.0,13.0,85,0.00,,,0.00,0,Wunderground v.1.15,2013-11-20 09:50:00,
2013-11-20 03:55:00,34.1,29.8,30.20,ESE,116,11.0,13.0,84,0.00,,,0.00,0,Wunderground v.1.15,2013-11-20 09:55:00,
2013-11-20 04:05:00,33.8,29.8,30.20,ESE,118,11.0,11.0,85,0.00,,,0.00,0,Wunderground v.1.15,2013-11-20 10:05:00,
2013-11-20 04:10:00,33.7,29.7,30.20,ESE,115,11.0,11.0,85,0.00,,,0.00,0,Wunderground v.1.15,2013-11-20 10:10:00,
2013-11-20 04:15:00,33.7,29.7,30.19,ESE,113,10.0,11.0,85,0.00,,,0.00,0,Wunderground v.1.15,2013-11-20 10:15:00,
2013-11-20 04:20:00,33.6,29.6,30.20,ESE,113,10.0,10.0,85,0.00,,,0.00,0,Wunderground v.1.15,2013-11-20 10:20:00,
2013-11-20 04:25:00,33.5,29.5,30.19,ESE,119,9.0,10.0,85,0.00,,,0.00,0,Wunderground v.1.15,2013-11-20 10:25:00,
2013-11-20 04:35:00,33.4,29.7,30.19,ESE,119,10.0,13.0,86,0.00,,,0.00,0,Wunderground v.1.15,2013-11-20 10:35:00,
2013-11-20 04:40:00,33.4,29.7,30.19,ESE,121,10.0,10.0,86,0.00,,,0.00,0,Wunderground v.1.15,2013-11-20 10:40:00,
2013-11-20 04:45:00,33.4,29.7,30.18,ESE,123,10.0,11.0,86,0.00,,,0.00,0,Wunderground v.1.15,2013-11-20 10:45:00,
2013-11-20 04:50:00,33.4,29.7,30.19,ESE,121,9.0,9.0,86,0.00,,,0.00,0,Wunderground v.1.15,2013-11-20 10:50:00,
2013-11-20 04:55:00,33.5,29.8,30.19,ESE,123,9.0,10.0,86,0.00,,,0.00,0,Wunderground v.1.15,2013-11-20 10:55:00,
2013-11-20 05:00:00,33.5,29.8,30.19,ESE,121,9.0,9.0,86,0.00,,,0.00,0,Wunderground v.1.15,2013-11-20 11:00:00,
2013-11-20 05:05:00,33.5,29.8,30.19,ESE,120,8.0,10.0,86,0.00,,,0.00,0,Wunderground v.1.15,2013-11-20 11:05:00,
2013-11-20 05:10:00,33.5,29.8,30.18,ESE,119,9.0,11.0,86,0.00,,,0.00,0,Wunderground v.1.15,2013-11-20 11:10:00,
2013-11-20 05:15:00,33.4,29.7,30.18,ESE,122,10.0,11.0,86,0.00,,,0.00,0,Wunderground v.1.15,2013-11-20 11:15:00,
2013-11-20 05:20:00,33.4,29.7,30.18,ESE,123,9.0,10.0,86,0.00,,,0.00,0,Wunderground v.1.15,2013-11-20 11:20:00,
2013-11-20 05:25:00,33.4,29.7,30.18,ESE,123,10.0,10.0,86,0.00,,,0.00,0,Wunderground v.1.15,2013-11-20 11:25:00,
2013-11-20 05:30:00,33.4,29.7,30.18,ESE,121,11.0,11.0,86,0.00,,,0.00,0,Wunderground v.1.15,2013-11-20 11:30:00,
2013-11-20 05:40:00,33.5,29.8,30.17,ESE,119,11.0,13.0,86,0.00,,,0.00,0,Wunderground v.1.15,2013-11-20 11:40:00,
2013-11-20 05:45:00,33.5,29.8,30.17,ESE,121,11.0,13.0,86,0.00,,,0.00,0,Wunderground v.1.15,2013-11-20 11:45:00,
2013-11-20 05:50:00,33.6,29.9,30.17,ESE,121,11.0,15.0,86,0.00,,,0.00,0,Wunderground v.1.15,2013-11-20 11:50:00,
2013-11-20 05:55:00,33.7,30.0,30.17,SE,132,11.0,15.0,86,0.00,,,0.00,0,Wunderground v.1.15,2013-11-20 11:55:00,
2013-11-20 06:00:00,33.8,29.8,30.17,SE,128,12.0,14.0,85,0.00,,,0.00,0,Wunderground v.1.15,2013-11-20 12:00:00,
2013-11-20 06:05:00,34.0,30.0,30.17,SE,134,12.0,14.0,85,0.00,,,0.00,0,Wunderground v.1.15,2013-11-20 12:05:00,
2013-11-20 06:15:00,34.4,30.1,30.17,SE,140,13.0,14.0,84,0.00,,,0.00,0,Wunderground v.1.15,2013-11-20 12:15:00,
2013-11-20 06:20:00,34.6,30.3,30.18,SE,128,13.0,14.0,84,0.00,,,0.00,0,Wunderground v.1.15,2013-11-20 12:20:00,
2013-11-20 06:25:00,34.7,30.1,30.18,SE,133,13.0,14.0,83,0.00,,,0.00,0,Wunderground v.1.15,2013-11-20 12:25:00,
2013-11-20 06:30:00,34.7,30.1,30.18,SE,133,12.0,12.0,83,0.00,,,0.00,0,Wunderground v.1.15,2013-11-20 12:30:00,
2013-11-20 06:35:00,34.7,30.1,30.19,SE,140,11.0,12.0,83,0.00,,,0.00,0,Wunderground v.1.15,2013-11-20 12:35:00,
2013-11-20 06:45:00,34.7,29.8,30.19,SE,136,12.0,13.0,82,0.00,,,0.00,0,Wunderground v.1.15,2013-11-20 12:45:00,
2013-11-20 06:50:00,34.6,30.0,30.19,SE,140,12.0,12.0,83,0.00,,,0.00,0,Wunderground v.1.15,2013-11-20 12:50:00,
2013-11-20 06:55:00,34.5,29.9,30.18,SE,136,11.0,12.0,83,0.00,,,0.00,0,Wunderground v.1.15,2013-11-20 12:55:00,
2013-11-20 07:00:00,34.4,29.8,30.18,SE,136,13.0,14.0,83,0.00,,,0.00,5,Wunderground v.1.15,2013-11-20 13:00:00,
2013-11-20 07:05:00,34.4,29.8,30.18,SE,135,13.0,14.0,83,0.00,,,0.00,9,Wunderground v.1.15,2013-11-20 13:05:00,
2013-11-20 07:10:00,34.3,30.0,30.18,SE,142,13.0,13.0,84,0.00,,,0.00,16,Wunderground v.1.15,2013-11-20 13:10:00,
2013-11-20 07:20:00,34.4,30.1,30.18,SE,140,13.0,14.0,84,0.00,,,0.00,25,Wunderground v.1.15,2013-11-20 13:20:00,
2013-11-20 07:25:00,34.5,30.2,30.18,SE,130,13.0,14.0,84,0.00,,,0.00,23,Wunderground v.1.15,2013-11-20 13:25:00,
2013-11-20 07:30:00,34.4,30.1,30.18,SE,130,12.0,13.0,84,0.00,,,0.00,30,Wunderground v.1.15,2013-11-20 13:30:00,
2013-11-20 07:35:00,34.5,30.2,30.19,SE,146,12.0,13.0,84,0.00,,,0.00,40,Wunderground v.1.15,2013-11-20 13:35:00,
2013-11-20 07:40:00,34.5,30.2,30.19,SE,135,13.0,13.0,84,0.00,,,0.00,49,Wunderground v.1.15,2013-11-20 13:40:00,
2013-11-20 07:50:00,34.7,30.4,30.19,SE,140,12.0,14.0,84,0.00,,,0.00,60,Wunderground v.1.15,2013-11-20 13:50:00,
2013-11-20 07:55:00,34.7,30.4,30.19,SE,140,13.0,14.0,84,0.00,,,0.00,67,Wunderground v.1.15,2013-11-20 13:55:00,
2013-11-20 08:00:00,34.7,30.4,30.19,SE,140,13.0,13.0,84,0.00,,,0.00,72,Wunderground v.1.15,2013-11-20 14:00:00,
2013-11-20 08:05:00,34.8,30.5,30.19,SE,146,13.0,19.0,84,0.00,,,0.00,74,Wunderground v.1.15,2013-11-20 14:05:00,
2013-11-20 08:10:00,34.9,30.3,30.19,SSE,147,15.0,15.0,83,0.00,,,0.00,74,Wunderground v.1.15,2013-11-20 14:10:00,
2013-11-20 08:15:00,35.0,30.4,30.19,SE,140,15.0,17.0,83,0.00,,,0.00,83,Wunderground v.1.15,2013-11-20 14:15:00,
2013-11-20 08:25:00,35.0,30.7,30.19,SSE,147,16.0,17.0,84,0.00,,,0.00,98,Wunderground v.1.15,2013-11-20 14:25:00,
2013-11-20 08:30:00,35.1,30.8,30.19,SE,138,15.0,15.0,84,0.00,,,0.00,79,Wunderground v.1.15,2013-11-20 14:30:00,
2013-11-20 08:35:00,35.2,30.6,30.19,SE,140,15.0,15.0,83,0.00,,,0.00,60,Wunderground v.1.15,2013-11-20 14:35:00,
2013-11-20 08:40:00,35.2,30.6,30.19,SE,138,15.0,15.0,83,0.00,,,0.00,63,Wunderground v.1.15,2013-11-20 14:40:00,
2013-11-20 08:45:00,35.3,30.7,30.18,SE,134,14.0,15.0,83,0.00,,,0.00,69,Wunderground v.1.15,2013-11-20 14:45:00,
2013-11-20 08:55:00,35.4,31.0,30.19,SE,132,12.0,16.0,84,0.00,,,0.00,65,Wunderground v.1.15,2013-11-20 14:55:00,
2013-11-20 09:00:00,35.4,30.8,30.18,SE,131,14.0,14.0,83,0.00,,,0.00,70,Wunderground v.1.15,2013-11-20 15:00:00,
2013-11-20 09:05:00,35.5,30.8,30.17,SE,135,15.0,15.0,83,0.00,,,0.00,90,Wunderground v.1.15,2013-11-20 15:05:00,
2013-11-20 09:10:00,35.6,30.9,30.18,SE,139,14.0,14.0,83,0.00,,,0.00,113,Wunderground v.1.15,2013-11-20 15:10:00,
2013-11-20 09:15:00,35.7,31.0,30.19,SSE,148,15.0,15.0,83,0.00,,,0.00,114,Wunderground v.1.15,2013-11-20 15:15:00,
2013-11-20 09:20:00,35.9,31.2,30.19,SE,142,14.0,16.0,83,0.00,,,0.00,95,Wunderground v.1.15,2013-11-20 15:20:00,
2013-11-20 09:30:00,36.1,31.1,30.19,SE,130,14.0,14.0,82,0.00,,,0.00,86,Wunderground v.1.15,2013-11-20 15:30:00,
2013-11-20 09:35:00,36.2,31.2,30.19,SE,136,13.0,14.0,82,0.00,,,0.00,72,Wunderground v.1.15,2013-11-20 15:35:00,
2013-11-20 09:40:00,36.2,30.9,30.19,SE,141,13.0,13.0,81,0.00,,,0.00,77,Wunderground v.1.15,2013-11-20 15:40:00,
2013-11-20 09:45:00,36.3,31.0,30.19,SE,138,13.0,13.0,81,0.00,,,0.00,74,Wunderground v.1.15,2013-11-20 15:45:00,
2013-11-20 09:50:00,36.4,31.1,30.19,SE,144,12.0,12.0,81,0.00,,,0.00,58,Wunderground v.1.15,2013-11-20 15:50:00,
2013-11-20 10:00:00,36.5,31.2,30.19,SSE,148,10.0,10.0,81,0.00,,,0.00,79,Wunderground v.1.15,2013-11-20 16:00:00,
2013-11-20 10:05:00,36.6,31.3,30.20,SE,135,11.0,11.0,81,0.00,,,0.00,109,Wunderground v.1.15,2013-11-20 16:05:00,
2013-11-20 10:10:00,36.8,31.8,30.20,SE,141,11.0,11.0,82,0.00,,,0.00,125,Wunderground v.1.15,2013-11-20 16:10:00,
2013-11-20 10:20:00,37.2,31.9,30.19,SE,140,10.0,11.0,81,0.00,,,0.00,174,Wunderground v.1.15,2013-11-20 16:20:00,
2013-11-20 10:25:00,37.4,31.8,30.19,SSE,148,10.0,11.0,80,0.00,,,0.00,255,Wunderground v.1.15,2013-11-20 16:25:00,
2013-11-20 10:30:00,37.8,32.5,30.20,SSE,150,9.0,9.0,81,0.00,,,0.00,229,Wunderground v.1.15,2013-11-20 16:30:00,
2013-11-20 10:35:00,38.0,32.1,30.20,SSE,150,8.0,10.0,79,0.00,,,0.00,181,Wunderground v.1.15,2013-11-20 16:35:00,
2013-11-20 10:40:00,38.0,32.1,30.20,SE,140,10.0,11.0,79,0.00,,,0.00,148,Wunderground v.1.15,2013-11-20 16:40:00,
2013-11-20 10:45:00,38.0,32.1,30.20,SE,141,10.0,11.0,79,0.00,,,0.00,125,Wunderground v.1.15,2013-11-20 16:45:00,
2013-11-20 10:50:00,38.1,32.2,30.20,SE,145,9.0,9.0,79,0.00,,,0.00,148,Wunderground v.1.15,2013-11-20 16:50:00,
2013-11-20 10:55:00,38.2,32.3,30.19,SE,146,8.0,12.0,79,0.00,,,0.00,188,Wunderground v.1.15,2013-11-20 16:55:00,
2013-11-20 11:05:00,38.6,32.6,30.19,SSE,150,9.0,11.0,79,0.00,,,0.00,202,Wunderground v.1.15,2013-11-20 17:05:00,
2013-11-20 11:10:00,38.7,32.7,30.18,SSE,151,10.0,10.0,79,0.00,,,0.00,167,Wunderground v.1.15,2013-11-20 17:10:00,
2013-11-20 11:15:00,38.9,32.9,30.18,SE,143,9.0,13.0,79,0.00,,,0.00,162,Wunderground v.1.15,2013-11-20 17:15:00,
2013-11-20 11:20:00,39.0,32.7,30.18,SSE,147,8.0,13.0,78,0.00,,,0.00,146,Wunderground v.1.15,2013-11-20 17:20:00,
2013-11-20 11:25:00,39.0,32.7,30.17,SE,139,10.0,13.0,78,0.00,,,0.00,116,Wunderground v.1.15,2013-11-20 17:25:00,
2013-11-20 11:30:00,39.0,32.7,30.17,SSE,150,11.0,12.0,78,0.00,,,0.00,118,Wunderground v.1.15,2013-11-20 17:30:00,
2013-11-20 11:40:00,38.9,32.6,30.16,SE,140,11.0,11.0,78,0.00,,,0.00,130,Wunderground v.1.15,2013-11-20 17:40:00,
2013-11-20 11:45:00,39.0,33.0,30.15,SE,142,11.0,12.0,79,0.00,,,0.00,114,Wunderground v.1.15,2013-11-20 17:45:00,
2013-11-20 11:50:00,38.9,32.3,30.15,SE,138,11.0,11.0,77,0.00,,,0.00,102,Wunderground v.1.15,2013-11-20 17:50:00,
2013-11-20 11:55:00,38.9,32.6,30.15,SE,141,11.0,13.0,78,0.00,,,0.00,97,Wunderground v.1.15,2013-11-20 17:55:00,
2013-11-20 12:00:00,38.8,32.5,30.14,SE,142,11.0,11.0,78,0.00,,,0.00,109,Wunderground v.1.15,2013-11-20 18:00:00,
2013-11-20 12:05:00,38.8,32.5,30.14,SE,134,11.0,12.0,78,0.00,,,0.00,116,Wunderground v.1.15,2013-11-20 18:05:00,
2013-11-20 12:15:00,38.9,32.9,30.13,SE,144,11.0,12.0,79,0.00,,,0.00,95,Wunderground v.1.15,2013-11-20 18:15:00,
2013-11-20 12:20:00,38.9,32.9,30.13,SE,144,11.0,12.0,79,0.00,,,0.00,90,Wunderground v.1.15,2013-11-20 18:20:00,
2013-11-20 12:25:00,38.9,32.9,30.13,SE,143,11.0,12.0,79,0.00,,,0.00,65,Wunderground v.1.15,2013-11-20 18:25:00,
2013-11-20 12:30:00,38.8,32.8,30.13,SE,141,11.0,12.0,79,0.00,,,0.00,51,Wunderground v.1.15,2013-11-20 18:30:00,
2013-11-20 12:35:00,38.7,32.7,30.14,SSE,150,11.0,12.0,79,0.00,,,0.00,54,Wunderground v.1.15,2013-11-20 18:35:00,
2013-11-20 12:45:00,38.7,33.1,30.13,SSE,147,10.0,10.0,80,0.00,,,0.00,46,Wunderground v.1.15,2013-11-20 18:45:00,
2013-11-20 12:50:00,38.6,33.6,30.13,SE,145,10.0,10.0,82,0.00,,,0.00,42,Wunderground v.1.15,2013-11-20 18:50:00,
2013-11-20 12:55:00,38.5,33.8,30.13,SE,144,9.0,10.0,83,0.00,,,0.01,39,Wunderground v.1.15,2013-11-20 18:55:00,
2013-11-20 13:00:00,38.3,33.6,30.12,SSE,150,9.0,10.0,83,0.00,,,0.01,39,Wunderground v.1.15,2013-11-20 19:00:00,
2013-11-20 13:05:00,38.3,34.2,30.12,SE,145,9.0,10.0,85,0.06,,,0.02,39,Wunderground v.1.15,2013-11-20 19:05:00,
2013-11-20 13:10:00,38.1,34.0,30.12,SE,140,9.0,9.0,85,0.06,,,0.02,39,Wunderground v.1.15,2013-11-20 19:10:00,
2013-11-20 13:20:00,37.9,34.1,30.11,SE,133,8.0,8.0,86,0.07,,,0.04,33,Wunderground v.1.15,2013-11-20 19:20:00,
2013-11-20 13:25:00,37.8,34.0,30.11,SE,135,9.0,9.0,86,0.07,,,0.04,35,Wunderground v.1.15,2013-11-20 19:25:00,
2013-11-20 13:30:00,37.8,34.3,30.10,SE,128,9.0,9.0,87,0.06,,,0.04,42,Wunderground v.1.15,2013-11-20 19:30:00,
2013-11-20 13:35:00,37.8,34.6,30.10,ESE,123,9.0,10.0,88,0.04,,,0.04,40,Wunderground v.1.15,2013-11-20 19:35:00,
2013-11-20 13:40:00,37.8,34.6,30.09,SE,126,10.0,10.0,88,0.00,,,0.05,37,Wunderground v.1.15,2013-11-20 19:40:00,
2013-11-20 13:50:00,37.9,34.9,30.08,SE,127,11.0,11.0,89,0.06,,,0.06,67,Wunderground v.1.15,2013-11-20 19:50:00,
2013-11-20 13:55:00,37.9,34.9,30.07,SE,126,11.0,11.0,89,0.06,,,0.06,60,Wunderground v.1.15,2013-11-20 19:55:00,
2013-11-20 14:00:00,37.9,34.9,30.07,ESE,113,10.0,12.0,89,0.09,,,0.07,47,Wunderground v.1.15,2013-11-20 20:00:00,
2013-11-20 14:05:00,37.9,34.9,30.07,ESE,123,11.0,12.0,89,0.06,,,0.07,51,Wunderground v.1.15,2013-11-20 20:05:00,
2013-11-20 14:10:00,37.9,34.9,30.07,ESE,113,12.0,15.0,89,0.04,,,0.07,44,Wunderground v.1.15,2013-11-20 20:10:00,
2013-11-20 14:15:00,37.9,34.9,30.07,SE,129,11.0,15.0,89,0.00,,,0.07,40,Wunderground v.1.15,2013-11-20 20:15:00,
2013-11-20 14:25:00,38.0,35.0,30.08,SE,133,10.0,11.0,89,0.00,,,0.08,37,Wunderground v.1.15,2013-11-20 20:25:00,
2013-11-20 14:30:00,38.0,35.3,30.07,SE,126,11.0,11.0,90,0.00,,,0.08,40,Wunderground v.1.15,2013-11-20 20:30:00,
2013-11-20 14:35:00,38.0,35.3,30.06,ESE,121,12.0,12.0,90,0.00,,,0.08,56,Wunderground v.1.15,2013-11-20 20:35:00,
2013-11-20 14:40:00,38.0,35.3,30.04,ESE,110,12.0,13.0,90,0.04,,,0.09,49,Wunderground v.1.15,2013-11-20 20:40:00,
2013-11-20 14:45:00,38.0,35.6,30.02,ESE,110,13.0,19.0,91,0.04,,,0.09,47,Wunderground v.1.15,2013-11-20 20:45:00,
2013-11-20 14:55:00,38.0,35.6,30.04,ESE,117,14.0,15.0,91,0.04,,,0.09,47,Wunderground v.1.15,2013-11-20 20:55:00,
2013-11-20 15:00:00,38.0,35.6,30.03,ESE,115,12.0,12.0,91,0.00,,,0.10,70,Wunderground v.1.15,2013-11-20 21:00:00,
2013-11-20 15:05:00,38.1,36.0,30.03,ESE,115,13.0,15.0,92,0.00,,,0.10,114,Wunderground v.1.15,2013-11-20 21:05:00,
2013-11-20 15:10:00,38.2,36.1,30.02,ESE,118,14.0,14.0,92,0.00,,,0.10,77,Wunderground v.1.15,2013-11-20 21:10:00,
2013-11-20 15:15:00,38.3,36.2,30.03,ESE,118,14.0,14.0,92,0.00,,,0.10,49,Wunderground v.1.15,2013-11-20 21:15:00,
2013-11-20 15:20:00,38.3,36.2,30.03,SE,136,14.0,14.0,92,0.00,,,0.10,37,Wunderground v.1.15,2013-11-20 21:20:00,
2013-11-20 15:30:00,38.3,35.9,30.04,SE,140,13.0,13.0,91,0.00,,,0.10,32,Wunderground v.1.15,2013-11-20 21:30:00,
2013-11-20 15:35:00,38.4,36.0,30.04,SE,136,13.0,13.0,91,0.00,,,0.10,18,Wunderground v.1.15,2013-11-20 21:35:00,
2013-11-20 15:40:00,38.4,36.0,30.04,SE,142,13.0,13.0,91,0.00,,,0.10,16,Wunderground v.1.15,2013-11-20 21:40:00,
2013-11-20 15:45:00,38.3,35.9,30.03,SE,131,14.0,15.0,91,0.00,,,0.10,18,Wunderground v.1.15,2013-11-20 21:45:00,
2013-11-20 15:50:00,38.3,35.9,30.03,SE,124,13.0,13.0,91,0.00,,,0.10,14,Wunderground v.1.15,2013-11-20 21:50:00,
2013-11-20 16:00:00,38.3,36.2,30.03,SE,130,12.0,12.0,92,0.00,,,0.10,11,Wunderground v.1.15,2013-11-20 22:00:00,
2013-11-20 16:05:00,38.4,36.3,30.03,SE,142,11.0,15.0,92,0.00,,,0.10,12,Wunderground v.1.15,2013-11-20 22:05:00,
2013-11-20 16:10:00,38.3,36.2,30.03,SE,126,12.0,15.0,92,0.00,,,0.11,18,Wunderground v.1.15,2013-11-20 22:10:00,
2013-11-20 16:15:00,38.3,36.2,30.03,SE,128,13.0,15.0,92,0.00,,,0.11,21,Wunderground v.1.15,2013-11-20 22:15:00,
2013-11-20 16:20:00,38.3,36.2,30.03,SE,128,12.0,12.0,92,0.00,,,0.11,16,Wunderground v.1.15,2013-11-20 22:20:00,
2013-11-20 16:25:00,38.3,36.2,30.03,ESE,121,12.0,14.0,92,0.00,,,0.11,16,Wunderground v.1.15,2013-11-20 22:25:00,
2013-11-20 16:35:00,38.3,36.2,30.05,SE,130,12.0,17.0,92,0.00,,,0.11,0,Wunderground v.1.15,2013-11-20 22:35:00,
2013-11-20 16:40:00,38.3,36.2,30.05,SE,126,12.0,14.0,92,0.00,,,0.11,0,Wunderground v.1.15,2013-11-20 22:40:00,
2013-11-20 16:45:00,38.3,36.5,30.04,ESE,123,12.0,14.0,93,0.00,,,0.11,0,Wunderground v.1.15,2013-11-20 22:45:00,
2013-11-20 16:50:00,38.3,36.5,30.04,ESE,117,11.0,11.0,93,0.00,,,0.11,0,Wunderground v.1.15,2013-11-20 22:50:00,
2013-11-20 16:55:00,38.2,36.4,30.06,ESE,119,10.0,11.0,93,0.00,,,0.11,0,Wunderground v.1.15,2013-11-20 22:55:00,
2013-11-20 17:05:00,38.2,36.4,30.06,SE,126,9.0,11.0,93,0.00,,,0.11,0,Wunderground v.1.15,2013-11-20 23:05:00,
2013-11-20 17:10:00,38.2,36.4,30.05,ESE,117,9.0,12.0,93,0.00,,,0.11,0,Wunderground v.1.15,2013-11-20 23:10:00,
2013-11-20 17:15:00,38.2,36.4,30.05,ESE,113,10.0,12.0,93,0.00,,,0.11,0,Wunderground v.1.15,2013-11-20 23:15:00,
2013-11-20 17:20:00,38.2,36.4,30.06,ESE,116,10.0,10.0,93,0.00,,,0.11,0,Wunderground v.1.15,2013-11-20 23:20:00,
2013-11-20 17:25:00,38.2,36.4,30.06,ESE,120,9.0,10.0,93,0.00,,,0.11,0,Wunderground v.1.15,2013-11-20 23:25:00,
2013-11-20 17:30:00,38.1,36.3,30.07,ESE,116,8.0,8.0,93,0.00,,,0.11,0,Wunderground v.1.15,2013-11-20 23:30:00,
2013-11-20 17:40:00,38.1,36.3,30.08,ESE,117,6.0,8.0,93,0.00,,,0.12,0,Wunderground v.1.15,2013-11-20 23:40:00,
2013-11-20 17:45:00,38.2,36.4,30.08,ESE,117,6.0,9.0,93,0.00,,,0.12,0,Wunderground v.1.15,2013-11-20 23:45:00,
2013-11-20 17:50:00,38.2,36.6,30.08,ESE,120,7.0,9.0,94,0.00,,,0.12,0,Wunderground v.1.15,2013-11-20 23:50:00,
2013-11-20 17:55:00,38.2,36.6,30.08,ESE,120,8.0,9.0,94,0.00,,,0.12,0,Wunderground v.1.15,2013-11-20 23:55:00,
2013-11-20 18:00:00,38.2,36.6,30.08,ESE,118,8.0,8.0,94,0.00,,,0.12,0,Wunderground v.1.15,2013-11-21 00:00:00,
2013-11-20 18:05:00,38.3,36.7,30.07,ESE,116,9.0,9.0,94,0.00,,,0.12,0,Wunderground v.1.15,2013-11-21 00:05:00,
2013-11-20 18:10:00,38.3,36.7,30.08,ESE,118,9.0,9.0,94,0.00,,,0.12,0,Wunderground v.1.15,2013-11-21 00:10:00,
2013-11-20 18:15:00,38.3,36.7,30.08,ESE,115,8.0,9.0,94,0.00,,,0.12,0,Wunderground v.1.15,2013-11-21 00:15:00,
2013-11-20 18:20:00,38.3,36.7,30.09,ESE,115,6.0,7.0,94,0.00,,,0.12,0,Wunderground v.1.15,2013-11-21 00:20:00,
2013-11-20 18:25:00,38.3,36.7,30.09,ESE,115,6.0,7.0,94,0.00,,,0.12,0,Wunderground v.1.15,2013-11-21 00:25:00,
2013-11-20 18:30:00,38.3,36.7,30.09,ESE,115,6.0,6.0,94,0.00,,,0.12,0,Wunderground v.1.15,2013-11-21 00:30:00,
2013-11-20 18:35:00,38.3,36.7,30.09,ESE,115,5.0,6.0,94,0.00,,,0.13,0,Wunderground v.1.15,2013-11-21 00:35:00,
2013-11-20 18:45:00,38.3,36.7,30.09,ESE,115,5.0,5.0,94,0.00,,,0.13,0,Wunderground v.1.15,2013-11-21 00:45:00,
2013-11-20 18:50:00,38.3,36.7,30.09,ESE,115,5.0,5.0,94,0.00,,,0.13,0,Wunderground v.1.15,2013-11-21 00:50:00,
2013-11-20 18:55:00,38.3,36.7,30.09,ESE,115,4.0,5.0,94,0.00,,,0.13,0,Wunderground v.1.15,2013-11-21 00:55:00,
2013-11-20 19:00:00,38.3,36.7,30.10,ESE,115,5.0,5.0,94,0.00,,,0.13,0,Wunderground v.1.15,2013-11-21 01:00:00,
2013-11-20 19:05:00,38.4,36.8,30.10,ESE,115,4.0,5.0,94,0.00,,,0.13,0,Wunderground v.1.15,2013-11-21 01:05:00,
2013-11-20 19:15:00,38.4,36.8,30.11,ESE,115,4.0,6.0,94,0.00,,,0.13,0,Wunderground v.1.15,2013-11-21 01:15:00,
2013-11-20 19:20:00,38.4,36.8,30.10,ESE,115,4.0,6.0,94,0.00,,,0.13,0,Wunderground v.1.15,2013-11-21 01:20:00,
2013-11-20 19:25:00,38.5,36.9,30.10,ESE,115,5.0,7.0,94,0.00,,,0.13,0,Wunderground v.1.15,2013-11-21 01:25:00,
2013-11-20 19:30:00,38.5,36.9,30.10,ESE,115,6.0,6.0,94,0.00,,,0.13,0,Wunderground v.1.15,2013-11-21 01:30:00,
2013-11-20 19:35:00,38.5,36.9,30.09,ESE,115,6.0,6.0,94,0.00,,,0.13,0,Wunderground v.1.15,2013-11-21 01:35:00,
2013-11-20 19:40:00,38.5,37.2,30.09,ESE,115,7.0,7.0,95,0.00,,,0.13,0,Wunderground v.1.15,2013-11-21 01:40:00,
2013-11-20 19:50:00,38.6,37.3,30.09,ESE,115,8.0,12.0,95,0.00,,,0.13,0,Wunderground v.1.15,2013-11-21 01:50:00,
2013-11-20 19:55:00,38.7,37.4,30.09,ESE,116,9.0,12.0,95,0.00,,,0.13,0,Wunderground v.1.15,2013-11-21 01:55:00,
2013-11-20 20:00:00,38.8,37.5,30.09,ESE,119,9.0,9.0,95,0.00,,,0.13,0,Wunderground v.1.15,2013-11-21 02:00:00,
2013-11-20 20:10:00,39.0,37.7,30.09,ESE,123,9.0,11.0,95,0.00,,,0.13,0,Wunderground v.1.15,2013-11-21 02:10:00,
2013-11-20 20:15:00,39.2,37.6,30.09,ESE,123,10.0,11.0,94,0.00,,,0.13,0,Wunderground v.1.15,2013-11-21 02:15:00,
2013-11-20 20:20:00,39.3,37.7,30.09,SE,126,10.0,13.0,94,0.00,,,0.13,0,Wunderground v.1.15,2013-11-21 02:20:00,
2013-11-20 20:25:00,39.4,37.8,30.09,ESE,122,10.0,13.0,94,0.00,,,0.13,0,Wunderground v.1.15,2013-11-21 02:25:00,
2013-11-20 20:30:00,39.5,37.9,30.09,SE,126,10.0,10.0,94,0.00,,,0.13,0,Wunderground v.1.15,2013-11-21 02:30:00,
2013-11-20 20:35:00,39.5,37.9,30.09,SE,130,10.0,10.0,94,0.00,,,0.13,0,Wunderground v.1.15,2013-11-21 02:35:00,
2013-11-20 20:40:00,39.6,38.0,30.09,ESE,123,9.0,10.0,94,0.00,,,0.13,0,Wunderground v.1.15,2013-11-21 02:40:00,
2013-11-20 20:45:00,39.6,38.0,30.09,SE,126,9.0,12.0,94,0.00,,,0.13,0,Wunderground v.1.15,2013-11-21 02:45:00,
2013-11-20 20:55:00,39.7,37.8,30.09,SE,130,10.0,10.0,93,0.00,,,0.13,0,Wunderground v.1.15,2013-11-21 02:55:00,
2013-11-20 21:00:00,39.7,37.8,30.09,SE,130,10.0,11.0,93,0.00,,,0.13,0,Wunderground v.1.15,2013-11-21 03:00:00,
2013-11-20 21:10:00,39.8,37.9,30.09,SE,132,10.0,11.0,93,0.00,,,0.13,0,Wunderground v.1.15,2013-11-21 03:10:00,
2013-11-20 21:15:00,39.9,38.0,30.08,SE,132,10.0,11.0,93,0.00,,,0.13,0,Wunderground v.1.15,2013-11-21 03:15:00,
2013-11-20 21:20:00,39.9,38.0,30.08,SE,126,11.0,11.0,93,0.00,,,0.13,0,Wunderground v.1.15,2013-11-21 03:20:00,
2013-11-20 21:25:00,39.9,38.0,30.08,SE,130,10.0,11.0,93,0.00,,,0.13,0,Wunderground v.1.15,2013-11-21 03:25:00,
2013-11-20 21:30:00,40.0,38.1,30.08,SE,130,10.0,10.0,93,0.00,,,0.13,0,Wunderground v.1.15,2013-11-21 03:30:00,
2013-11-20 21:35:00,40.0,38.1,30.09,SE,126,10.0,10.0,93,0.00,,,0.13,0,Wunderground v.1.15,2013-11-21 03:35:00,
2013-11-20 21:40:00,40.1,38.2,30.09,SE,127,9.0,9.0,93,0.00,,,0.13,0,Wunderground v.1.15,2013-11-21 03:40:00,
2013-11-20 21:45:00,40.2,38.3,30.09,SE,130,8.0,10.0,93,0.00,,,0.13,0,Wunderground v.1.15,2013-11-21 03:45:00,
2013-11-20 21:50:00,40.2,38.3,30.09,SE,127,9.0,9.0,93,0.00,,,0.13,0,Wunderground v.1.15,2013-11-21 03:50:00,
2013-11-20 22:00:00,40.3,38.4,30.08,SE,132,9.0,9.0,93,0.00,,,0.13,0,Wunderground v.1.15,2013-11-21 04:00:00,
2013-11-20 22:10:00,40.7,38.6,30.09,ESE,123,11.0,11.0,92,0.00,,,0.13,0,Wunderground v.1.15,2013-11-21 04:10:00,
2013-11-20 22:15:00,40.8,38.4,30.08,SE,136,10.0,11.0,91,0.00,,,0.13,0,Wunderground v.1.15,2013-11-21 04:15:00,
2013-11-20 22:20:00,40.8,38.4,30.08,SE,134,10.0,10.0,91,0.00,,,0.13,0,Wunderground v.1.15,2013-11-21 04:20:00,
2013-11-20 22:25:00,40.9,38.5,30.08,SE,132,9.0,10.0,91,0.00,,,0.13,0,Wunderground v.1.15,2013-11-21 04:25:00,
2013-11-20 22:30:00,40.9,38.5,30.09,SE,128,9.0,9.0,91,0.00,,,0.13,0,Wunderground v.1.15,2013-11-21 04:30:00,
2013-11-20 22:35:00,40.9,38.5,30.09,SE,127,9.0,10.0,91,0.00,,,0.13,0,Wunderground v.1.15,2013-11-21 04:35:00,
2013-11-20 22:40:00,40.9,38.5,30.09,SE,126,8.0,8.0,91,0.00,,,0.13,0,Wunderground v.1.15,2013-11-21 04:40:00,
2013-11-20 22:45:00,40.9,38.5,30.09,SE,126,7.0,8.0,91,0.00,,,0.13,0,Wunderground v.1.15,2013-11-21 04:45:00,
2013-11-20 22:50:00,40.9,38.5,30.09,SE,126,7.0,7.0,91,0.00,,,0.13,0,Wunderground v.1.15,2013-11-21 04:50:00,
2013-11-20 22:55:00,40.9,38.5,30.09,SE,129,7.0,7.0,91,0.00,,,0.13,0,Wunderground v.1.15,2013-11-21 04:55:00,
2013-11-20 23:05:00,41.1,38.7,30.09,SE,129,6.0,7.0,91,0.00,,,0.13,0,Wunderground v.1.15,2013-11-21 05:05:00,
2013-11-20 23:10:00,41.1,38.7,30.09,SE,129,5.0,5.0,91,0.00,,,0.13,0,Wunderground v.1.15,2013-11-21 05:10:00,
2013-11-20 23:15:00,41.1,38.7,30.09,SE,129,5.0,5.0,91,0.00,,,0.13,0,Wunderground v.1.15,2013-11-21 05:15:00,
2013-11-20 23:20:00,41.1,38.7,30.09,SE,129,4.0,4.0,91,0.00,,,0.13,0,Wunderground v.1.15,2013-11-21 05:20:00,
2013-11-20 23:25:00,41.2,38.8,30.09,SE,129,4.0,4.0,91,0.00,,,0.13,0,Wunderground v.1.15,2013-11-21 05:25:00,
2013-11-20 23:30:00,41.3,38.9,30.09,SE,129,5.0,5.0,91,0.00,,,0.13,0,Wunderground v.1.15,2013-11-21 05:30:00,
2013-11-20 23:35:00,41.4,39.0,30.09,SE,129,5.0,5.0,91,0.00,,,0.13,0,Wunderground v.1.15,2013-11-21 05:35:00,
2013-11-20 23:40:00,41.4,39.0,30.09,SE,129,4.0,5.0,91,0.00,,,0.13,0,Wunderground v.1.15,2013-11-21 05:40:00,
2013-11-20 23:45:00,41.6,38.9,30.09,SE,129,4.0,5.0,90,0.00,,,0.13,0,Wunderground v.1.15,2013-11-21 05:45:00,
2013-11-20 23:50:00,41.6,38.9,30.09,SE,129,5.0,5.0,90,0.00,,,0.13,0,Wunderground v.1.15,2013-11-21 05:50:00,
2013-11-20 23:55:00,41.7,39.0,30.09,SE,129,4.0,5.0,90,0.00,,,0.13,0,Wunderground v.1.15,2013-11-21 05:55:00,